Juneau, WI

11:24 PM CST on December 12, 2019 (GMT -0600)
Dodge County

Weather History for KUNU - October, 2019

Change the Weather History Date:

Tuesday, October 22, 2019

  Actual Average Record
Temperature  
Mean Temperature 45 °F -  
Max Temperature 49 °F 54 °F 76 °F (1978)
Min Temperature 41 °F 39 °F 20 °F (1976)
Degree Days  
Heating Degree Days 20    
Moisture  
Dew Point 39 °F    
Average Humidity 84    
Maximum Humidity 93    
Minimum Humidity 67    
Precipitation  
Precipitation 0.00 in - - ()
Sea Level Pressure  
Sea Level Pressure 29.47 in    
Wind  
Wind Speed 18 mph ()    
Max Wind Speed 29 mph    
Max Gust Speed 39 mph    
Visibility 9.5 miles    
Events Rain    
Averages and records for this station are not official NWS values.
T = Trace of Precipitation, MM = Missing Value Source: Averaged Metar Reports

Daily Weather History Graph

Daily Weather History Graph

Search for Another Location

Airport or City:

Astronomy

Oct. 22, 2019 Rise Set
Actual Time 7:17 AM CDT 6:00 PM CDT
Civil Twilight 6:48 AM CDT 6:29 PM CDT
Nautical Twilight 6:14 AM CDT 7:03 PM CDT
Astronomical Twilight 5:41 AM CDT 7:36 PM CDT
Moon 12:11 AM CDT (10/22) 3:23 PM CDT (10/22)
Length of Visible Light 11h 41m
Length of Day
10h 43m
Last Quarter, 37% of the Moon is Illuminated
Oct 22
Last Quarter
Oct 27
New
Nov 4
First Quarter
Nov 12
Full
Nov 19
Last Quarter

Hourly Weather History & Observations

Time (CDT) Temp. Windchill Dew Point Humidity Pressure Visibility Wind Dir Wind Speed Gust Speed Precip Events Conditions
12:35 AM 49.6 °F - 40.1 °F 70% 29.38 in 10.0 mi South 18.4 mph - N/A   Overcast
12:55 AM 49.6 °F - 40.1 °F 70% 29.37 in 10.0 mi South 19.6 mph 26.5 mph N/A   Overcast
1:15 AM 49.6 °F - 40.1 °F 70% 29.36 in 10.0 mi South 18.4 mph 24.2 mph N/A   Overcast
1:55 AM 49.3 °F - 40.8 °F 73% 29.34 in 10.0 mi South 17.3 mph 27.6 mph N/A Rain Light Rain
2:15 AM 47.1 °F - 42.6 °F 84% 29.34 in 10.0 mi South 21.9 mph 31.1 mph N/A   Overcast
2:35 AM 46.4 °F 39.2 °F 41.0 °F 81% 29.35 in 10.0 mi SSW 18.4 mph 27.6 mph N/A   Overcast
2:55 AM 46.0 °F 39.3 °F 39.4 °F 78% 29.33 in 10.0 mi South 16.1 mph 26.5 mph N/A   Overcast
3:15 AM 45.7 °F 38.6 °F 40.1 °F 81% 29.32 in 10.0 mi South 17.3 mph 27.6 mph N/A   Overcast
3:35 AM 45.7 °F 38.3 °F 40.6 °F 83% 29.31 in 10.0 mi South 18.4 mph 23.0 mph N/A   Overcast
3:55 AM 45.7 °F 37.6 °F 41.0 °F 84% 29.30 in 10.0 mi South 21.9 mph 28.8 mph N/A   Overcast
4:35 AM 45.0 °F 36.6 °F 41.7 °F 88% 29.30 in 10.0 mi South 21.9 mph 28.8 mph N/A   Overcast
4:55 AM 45.5 °F 38.3 °F 40.5 °F 83% 29.30 in 10.0 mi South 17.3 mph 27.6 mph N/A   Overcast
5:15 AM 44.8 °F 35.9 °F 41.7 °F 89% 29.30 in 7.0 mi South 24.2 mph 32.2 mph N/A   Light Drizzle
5:35 AM 44.6 °F 36.6 °F 41.9 °F 90% 29.29 in 10.0 mi SSW 19.6 mph 28.8 mph N/A   Overcast
5:55 AM 44.8 °F 35.2 °F 40.3 °F 84% 29.31 in 10.0 mi SSW 28.8 mph 39.1 mph N/A   Overcast
6:35 AM 44.1 °F 35.9 °F 39.2 °F 83% 29.32 in 10.0 mi SW 19.6 mph 33.4 mph N/A   Overcast
6:55 AM 43.3 °F 35.5 °F 40.8 °F 91% 29.32 in 7.0 mi SW 17.3 mph 28.8 mph N/A Rain Light Rain
7:15 AM 43.2 °F 34.2 °F 41.2 °F 93% 29.33 in 10.0 mi SSW 21.9 mph 26.5 mph N/A   Overcast
7:35 AM 43.2 °F 35.3 °F 41.4 °F 93% 29.33 in 10.0 mi SSW 17.3 mph 25.3 mph N/A   Overcast
7:55 AM 43.2 °F 34.2 °F 41.0 °F 92% 29.34 in 10.0 mi SW 21.9 mph 29.9 mph N/A   Overcast
8:15 AM 43.3 °F 34.7 °F 40.1 °F 88% 29.35 in 10.0 mi SW 20.7 mph 29.9 mph N/A   Overcast
8:35 AM 43.7 °F 35.7 °F 39.7 °F 86% 29.36 in 10.0 mi SW 18.4 mph 29.9 mph N/A   Overcast
8:55 AM 43.9 °F 34.7 °F 39.6 °F 85% 29.38 in 10.0 mi SW 24.2 mph 31.1 mph N/A   Overcast
9:15 AM 44.1 °F 35.7 °F 39.4 °F 84% 29.38 in 10.0 mi SW 20.7 mph 28.8 mph N/A   Overcast
9:35 AM 44.1 °F 35.7 °F 39.4 °F 84% 29.39 in 10.0 mi SW 20.7 mph 32.2 mph N/A   Overcast
9:55 AM 44.2 °F 37.0 °F 39.6 °F 84% 29.39 in 10.0 mi SW 16.1 mph 26.5 mph N/A   Overcast
10:15 AM 43.9 °F 35.2 °F 40.5 °F 88% 29.41 in 10.0 mi SW 21.9 mph 28.8 mph N/A   Overcast
10:35 AM 43.9 °F 35.4 °F 40.8 °F 89% 29.41 in 10.0 mi SW 20.7 mph 31.1 mph N/A   Overcast
10:55 AM 44.8 °F 36.4 °F 40.5 °F 85% 29.43 in 10.0 mi SW 21.9 mph 29.9 mph N/A   Overcast
11:15 AM 45.1 °F 36.9 °F 39.6 °F 81% 29.43 in 10.0 mi WSW 21.9 mph 31.1 mph N/A   Overcast
11:35 AM 45.7 °F 36.9 °F 39.0 °F 78% 29.45 in 10.0 mi SW 25.3 mph 29.9 mph N/A   Overcast
11:55 AM 45.5 °F 37.3 °F 38.5 °F 76% 29.45 in 10.0 mi WSW 21.9 mph 29.9 mph N/A   Overcast
12:35 PM 43.2 °F 34.7 °F 40.1 °F 89% 29.47 in 4.0 mi WSW 19.6 mph 29.9 mph N/A Rain Light Rain
12:55 PM 43.5 °F 35.8 °F 40.6 °F 90% 29.48 in 7.0 mi WSW 17.3 mph 25.3 mph N/A Rain Rain
1:15 PM 43.2 °F 34.5 °F 39.7 °F 88% 29.48 in 10.0 mi WSW 20.7 mph 32.2 mph N/A   Overcast
1:35 PM 44.1 °F 36.5 °F 39.0 °F 82% 29.49 in 10.0 mi WSW 17.3 mph 26.5 mph N/A   Overcast
1:55 PM 44.2 °F 35.4 °F 38.3 °F 80% 29.50 in 10.0 mi SW 23.0 mph 31.1 mph N/A   Overcast
2:15 PM 43.3 °F 34.0 °F 38.8 °F 84% 29.51 in 10.0 mi SW 24.2 mph 32.2 mph N/A   Drizzle
2:35 PM 43.9 °F 34.7 °F 39.0 °F 83% 29.52 in 10.0 mi SW 24.2 mph 31.1 mph N/A   Overcast
2:55 PM 43.7 °F 35.7 °F 39.0 °F 84% 29.52 in 10.0 mi SW 18.4 mph 27.6 mph N/A Rain Light Rain
3:15 PM 43.0 °F 34.0 °F 39.4 °F 87% 29.54 in 7.0 mi SW 21.9 mph 28.8 mph N/A   Light Drizzle
3:55 PM 42.3 °F 33.6 °F 38.7 °F 87% 29.56 in 10.0 mi SW 19.6 mph 27.6 mph N/A   Overcast
4:15 PM 42.3 °F 32.6 °F 38.5 °F 86% 29.57 in 7.0 mi WSW 24.2 mph 32.2 mph N/A Rain Light Rain
4:35 PM 42.1 °F 33.6 °F 38.5 °F 87% 29.58 in 7.0 mi WSW 18.4 mph 27.6 mph N/A Rain Light Rain
4:55 PM 42.4 °F 34.4 °F 37.8 °F 83% 29.58 in 10.0 mi WSW 17.3 mph 29.9 mph N/A   Overcast
5:15 PM 42.3 °F 34.4 °F 37.9 °F 85% 29.59 in 10.0 mi WSW 16.1 mph 23.0 mph N/A   Light Drizzle
5:35 PM 41.9 °F 33.7 °F 38.5 °F 88% 29.60 in 7.0 mi WSW 17.3 mph 27.6 mph N/A   Light Drizzle
5:55 PM 42.1 °F 33.1 °F 37.8 °F 85% 29.61 in 10.0 mi WSW 20.7 mph 26.5 mph N/A   Overcast
6:15 PM 41.9 °F 34.3 °F 37.8 °F 85% 29.62 in 7.0 mi WSW 15.0 mph 24.2 mph N/A   Drizzle
6:35 PM 41.7 °F 35.2 °F 38.3 °F 88% 29.63 in 10.0 mi WSW 11.5 mph - N/A   Drizzle
6:55 PM 41.9 °F 34.6 °F 38.3 °F 87% 29.63 in 10.0 mi SW 13.8 mph 24.2 mph N/A   Light Drizzle
7:15 PM 42.3 °F 35.1 °F 37.9 °F 85% 29.64 in 10.0 mi SW 13.8 mph 18.4 mph N/A   Overcast
7:35 PM 42.4 °F 35.7 °F 37.9 °F 84% 29.65 in 10.0 mi WSW 12.7 mph 26.5 mph N/A   Overcast
7:55 PM 42.3 °F 36.3 °F 38.7 °F 87% 29.65 in 10.0 mi WSW 10.4 mph - N/A   Drizzle
8:15 PM 41.9 °F 40.0 °F 38.8 °F 89% 29.65 in 10.0 mi WSW 3.5 mph - N/A   Light Drizzle
8:55 PM 41.9 °F 33.7 °F 38.8 °F 89% 29.66 in 7.0 mi WSW 17.3 mph 25.3 mph N/A   Drizzle
9:15 PM 41.9 °F 34.6 °F 39.0 °F 90% 29.66 in 10.0 mi SW 13.8 mph 18.4 mph N/A   Overcast
9:35 PM 42.4 °F 36.1 °F 38.8 °F 87% 29.67 in 10.0 mi SW 11.5 mph - N/A   Light Drizzle
10:15 PM 43.7 °F 36.9 °F 37.2 °F 78% 29.67 in 10.0 mi WSW 13.8 mph - N/A   Overcast
10:35 PM 44.6 °F 37.8 °F 35.1 °F 69% 29.67 in 10.0 mi WSW 15.0 mph 19.6 mph N/A   Overcast
10:55 PM 44.6 °F 39.2 °F 34.3 °F 67% 29.68 in 10.0 mi WSW 10.4 mph 20.7 mph N/A   Overcast